Location: *
(37.4917°N, 71.5558°E)
Time: 08:35:22
(UTC+00:00)

USA 267 - Pass Details

Date: 09 April 2020
Orbit: 1101 x 1107 km, 123.0° (Epoch: 05 April)

Event Time Altitude Azimuth Distance (km) Brightness Sun altitude
Rises 22:31:40 0° 42° (NE) 3,921 7.4 -25.4°
Reaches altitude 10° 22:34:09 10° 40° (NE) 2,961 6.5 -25.0°
Maximum altitude 22:40:38 69° 319° (NW) 1,172 3.3 -23.9°
Enters shadow 22:42:45 44° 253° (WSW) 1,470 3.4 -23.6°
